, AK

(GMT )
Savoonga

Weather History for PASA - October, 2012

Change the Weather History Date:

Tuesday, October 16, 2012

  Actual Average Record
Temperature  
Mean Temperature 27 °F -  
Max Temperature 28 °F 32 °F 44 °F (2013)
Min Temperature 26 °F 27 °F 19 °F (1996)
Degree Days  
Heating Degree Days 38    
Moisture  
Dew Point 16 °F    
Average Humidity 65    
Maximum Humidity 74    
Minimum Humidity 55    
Precipitation  
Precipitation 0.00 in - - ()
Sea Level Pressure  
Sea Level Pressure 30.14 in    
Wind  
Wind Speed 19 mph (NNW)    
Max Wind Speed 26 mph    
Max Gust Speed 31 mph    
Visibility 10 miles    
Events      
Averages and records for this station are not official NWS values.
T = Trace of Precipitation, MM = Missing Value Source: NWS Daily Summary

Daily Weather History Graph

Daily Weather History Graph

Search for Another Location

Airport or City:

Trip Planner

Search our weather history database for the weather conditions in past years. The results will help you decide how hot, cold, wet, or windy it might be!

Date:

Astronomy

Oct. 16, 2012 Rise Set
Actual Time 10:16 AM AKDT 7:57 PM AKDT
Civil Twilight 9:27 AM AKDT 8:45 PM AKDT
Nautical Twilight 8:33 AM AKDT 9:39 PM AKDT
Astronomical Twilight 7:38 AM AKDT 10:34 PM AKDT
Moon 12:50 PM AKDT (10/16) 7:52 PM AKDT (10/16)
Length of Visible Light 11h 17m
Length of Day
9h 41m
Waxing Crescent, 3% of the Moon is Illuminated
Oct 16
Waxing Crescent
Oct 21
First Quarter
Oct 29
Full
Nov 6
Last Quarter
Nov 13
New

Hourly Weather History & Observations

Time (AKDT) Temp. Windchill Dew Point Humidity Pressure Visibility Wind Dir Wind Speed Gust Speed Precip Events Conditions
12:16 AM 26.6 °F 11.7 °F 17.6 °F 69% 30.02 in 10.0 mi NNW 24.2 mph 31.1 mph N/A   Mostly Cloudy
12:36 AM 26.6 °F 13.1 °F 19.4 °F 74% 30.02 in 10.0 mi NNW 19.6 mph 29.9 mph N/A   Overcast
12:56 AM 26.6 °F 13.4 °F 19.4 °F 74% 30.03 in 10.0 mi NNW 18.4 mph 27.6 mph N/A   Overcast
1:16 AM 26.6 °F 13.1 °F 17.6 °F 69% 30.03 in 10.0 mi NNW 19.6 mph 27.6 mph N/A   Overcast
1:36 AM 26.6 °F 12.7 °F 15.8 °F 64% 30.03 in 10.0 mi NNW 20.7 mph 25.3 mph N/A   Mostly Cloudy
1:56 AM 28.4 °F 15.4 °F 15.8 °F 59% 30.04 in 10.0 mi NNW 19.6 mph 27.6 mph N/A   Overcast
2:16 AM 26.6 °F 12.0 °F 19.4 °F 74% 30.04 in 10.0 mi North 23.0 mph 29.9 mph N/A   Overcast
2:36 AM 28.4 °F 15.1 °F 19.4 °F 69% 30.05 in 10.0 mi NNW 20.7 mph 27.6 mph N/A   Overcast
2:56 AM 26.6 °F 12.7 °F 17.6 °F 69% 30.05 in 10.0 mi NNW 20.7 mph 28.8 mph N/A   Overcast
3:16 AM 26.6 °F 13.1 °F 17.6 °F 69% 30.05 in 10.0 mi North 19.6 mph 27.6 mph N/A   Overcast
3:36 AM 26.6 °F 12.7 °F 19.4 °F 74% 30.05 in 10.0 mi North 20.7 mph 31.1 mph N/A   Overcast
3:56 AM 26.6 °F 12.4 °F 17.6 °F 69% 30.05 in 10.0 mi North 21.9 mph 28.8 mph N/A   Overcast
4:16 AM 26.6 °F 12.4 °F 17.6 °F 69% 30.06 in 10.0 mi North 21.9 mph 26.5 mph N/A   Overcast
4:36 AM 26.6 °F 12.7 °F 19.4 °F 74% 30.07 in 10.0 mi NNW 20.7 mph 27.6 mph N/A   Overcast
4:56 AM 26.6 °F 13.1 °F 17.6 °F 69% 30.07 in 10.0 mi NNW 19.6 mph 27.6 mph N/A   Mostly Cloudy
5:16 AM - - - N/A% 30.06 in 10.0 mi North 26.5 mph - N/A   Mostly Cloudy
5:36 AM 28.4 °F 15.8 °F 17.6 °F 64% 30.08 in 10.0 mi NNW 18.4 mph 27.6 mph N/A   Mostly Cloudy
5:56 AM 26.6 °F 11.4 °F 19.4 °F 74% 30.08 in 10.0 mi North 25.3 mph - N/A   Overcast
6:16 AM 26.6 °F 13.4 °F 19.4 °F 74% 30.09 in 10.0 mi NNW 18.4 mph 23.0 mph N/A   Overcast
6:36 AM 26.6 °F 12.7 °F 19.4 °F 74% 30.09 in 10.0 mi NNW 20.7 mph 28.8 mph N/A   Overcast
6:56 AM 26.6 °F 12.0 °F 17.6 °F 69% 30.09 in 10.0 mi North 23.0 mph 27.6 mph N/A   Mostly Cloudy
7:16 AM 26.6 °F 13.1 °F 15.8 °F 64% 30.09 in 10.0 mi NNW 19.6 mph 24.2 mph N/A   Mostly Cloudy
7:36 AM 26.6 °F 13.8 °F 17.6 °F 69% 30.10 in 10.0 mi North 17.3 mph 25.3 mph N/A   Mostly Cloudy
7:56 AM 26.6 °F 13.4 °F 17.6 °F 69% 30.10 in 10.0 mi North 18.4 mph 25.3 mph N/A   Mostly Cloudy
8:16 AM 26.6 °F 13.8 °F 17.6 °F 69% 30.11 in 10.0 mi NNW 17.3 mph 21.9 mph N/A   Mostly Cloudy
8:36 AM 26.6 °F 13.4 °F 17.6 °F 69% 30.11 in 10.0 mi NNW 18.4 mph - N/A   Scattered Clouds
8:56 AM 26.6 °F 13.1 °F 17.6 °F 69% 30.11 in 10.0 mi NNW 19.6 mph 24.2 mph N/A   Mostly Cloudy
9:16 AM 26.6 °F 13.1 °F 17.6 °F 69% 30.12 in 10.0 mi North 19.6 mph 23.0 mph N/A   Mostly Cloudy
9:36 AM 26.6 °F 13.1 °F 17.6 °F 69% 30.12 in 10.0 mi North 19.6 mph 24.2 mph N/A   Mostly Cloudy
9:56 AM 26.6 °F 14.7 °F 17.6 °F 69% 30.13 in 10.0 mi NNW 15.0 mph - N/A   Mostly Cloudy
10:16 AM 26.6 °F 13.4 °F 15.8 °F 64% 30.13 in 10.0 mi North 18.4 mph 21.9 mph N/A   Mostly Cloudy
10:36 AM 26.6 °F 13.4 °F 17.6 °F 69% 30.13 in 10.0 mi North 18.4 mph 24.2 mph N/A   Partly Cloudy
10:56 AM 26.6 °F 13.8 °F 17.6 °F 69% 30.14 in 10.0 mi NNW 17.3 mph 23.0 mph N/A   Mostly Cloudy
11:16 AM 26.6 °F 13.8 °F 17.6 °F 69% 30.14 in 10.0 mi NNW 17.3 mph 23.0 mph N/A   Mostly Cloudy
11:36 AM 26.6 °F 13.8 °F 17.6 °F 69% 30.15 in 10.0 mi NNW 17.3 mph 24.2 mph N/A   Mostly Cloudy
11:56 AM 26.6 °F 13.4 °F 15.8 °F 64% 30.15 in 10.0 mi NNW 18.4 mph 24.2 mph N/A   Mostly Cloudy
12:16 PM 26.6 °F 13.8 °F 15.8 °F 64% 30.16 in 10.0 mi NNW 17.3 mph - N/A   Mostly Cloudy
12:36 PM 26.6 °F 13.4 °F 15.8 °F 64% 30.16 in 10.0 mi NNW 18.4 mph 21.9 mph N/A   Scattered Clouds
12:56 PM 26.6 °F 13.1 °F 15.8 °F 64% 30.16 in 10.0 mi North 19.6 mph - N/A   Mostly Cloudy
1:16 PM 26.6 °F 13.8 °F 15.8 °F 64% 30.17 in 10.0 mi NNW 17.3 mph 20.7 mph N/A   Mostly Cloudy
1:56 PM 26.6 °F 15.2 °F 15.8 °F 64% 30.17 in 10.0 mi NNW 13.8 mph - N/A   Mostly Cloudy
2:16 PM 26.6 °F 14.7 °F 15.8 °F 64% 30.18 in 10.0 mi NNW 15.0 mph 23.0 mph N/A   Mostly Cloudy
2:36 PM 26.6 °F 13.8 °F 17.6 °F 69% 30.18 in 10.0 mi NNW 17.3 mph 21.9 mph N/A   Scattered Clouds
2:56 PM 28.4 °F 16.2 °F 15.8 °F 59% 30.18 in 10.0 mi NNW 17.3 mph - N/A   Partly Cloudy
3:16 PM 28.4 °F 17.0 °F 15.8 °F 59% 30.18 in 10.0 mi NNW 15.0 mph - N/A   Clear
3:36 PM 28.4 °F 17.0 °F 15.8 °F 59% 30.19 in 10.0 mi NNW 15.0 mph - N/A   Clear
3:56 PM 28.4 °F 17.0 °F 17.6 °F 64% 30.18 in 10.0 mi NNW 15.0 mph - N/A   Clear
4:16 PM 28.4 °F 17.0 °F 15.8 °F 59% 30.18 in 10.0 mi NW 15.0 mph - N/A   Clear
4:36 PM 28.4 °F 17.0 °F 15.8 °F 59% 30.18 in 10.0 mi NNW 15.0 mph - N/A   Clear
4:56 PM 28.4 °F 18.0 °F 15.8 °F 59% 30.19 in 10.0 mi NNW 12.7 mph - N/A   Clear
5:16 PM 28.4 °F 17.5 °F 15.8 °F 59% 30.19 in 10.0 mi NNW 13.8 mph - N/A   Clear
5:36 PM 28.4 °F 18.0 °F 15.8 °F 59% 30.19 in 10.0 mi NNW 12.7 mph 18.4 mph N/A   Clear
5:56 PM 28.4 °F 18.5 °F 14.0 °F 55% 30.20 in 10.0 mi NNW 11.5 mph 19.6 mph N/A   Clear
6:16 PM 28.4 °F 18.0 °F 14.0 °F 55% 30.20 in 10.0 mi NW 12.7 mph 17.3 mph N/A   Partly Cloudy
6:36 PM 26.6 °F 14.7 °F 14.0 °F 59% 30.20 in 10.0 mi NNW 15.0 mph - N/A   Partly Cloudy
6:56 PM 26.6 °F 16.2 °F 12.2 °F 55% 30.21 in 10.0 mi NNW 11.5 mph - N/A   Scattered Clouds
7:16 PM 26.6 °F 15.7 °F 14.0 °F 59% 30.21 in 10.0 mi NW 12.7 mph - N/A   Mostly Cloudy
7:36 PM 26.6 °F 16.2 °F 14.0 °F 59% 30.21 in 10.0 mi NW 11.5 mph - N/A   Scattered Clouds
7:56 PM 26.6 °F 16.2 °F 12.2 °F 55% 30.22 in 10.0 mi NW 11.5 mph - N/A   Mostly Cloudy
8:16 PM 26.6 °F 15.2 °F 14.0 °F 59% 30.22 in 10.0 mi NNW 13.8 mph 17.3 mph N/A   Scattered Clouds
8:36 PM 26.6 °F 16.2 °F 12.2 °F 55% 30.22 in 10.0 mi NNW 11.5 mph - N/A   Scattered Clouds
8:56 PM 26.6 °F 16.2 °F 12.2 °F 55% 30.23 in 10.0 mi NW 11.5 mph 17.3 mph N/A   Partly Cloudy
9:16 PM 26.6 °F 16.2 °F 14.0 °F 59% 30.23 in 10.0 mi NNW 11.5 mph - N/A   Scattered Clouds
9:36 PM 26.6 °F 15.7 °F 14.0 °F 59% 30.23 in 10.0 mi North 12.7 mph - N/A   Scattered Clouds
9:56 PM 26.6 °F 16.8 °F 14.0 °F 59% 30.24 in 10.0 mi NNW 10.4 mph - N/A   Scattered Clouds
10:16 PM 26.6 °F 16.2 °F 15.8 °F 64% 30.24 in 10.0 mi NNW 11.5 mph - N/A   Scattered Clouds
10:36 PM 26.6 °F 16.8 °F 15.8 °F 64% 30.25 in 10.0 mi North 10.4 mph - N/A   Scattered Clouds
10:56 PM 26.6 °F 16.8 °F 14.0 °F 59% 30.25 in 10.0 mi NNW 10.4 mph - N/A   Scattered Clouds
11:16 PM 26.6 °F 17.5 °F 15.8 °F 64% 30.25 in 10.0 mi NNW 9.2 mph - N/A   Mostly Cloudy
11:36 PM 26.6 °F 16.8 °F 15.8 °F 64% 30.25 in 10.0 mi North 10.4 mph - N/A   Mostly Cloudy
11:56 PM 26.6 °F 19.1 °F 15.8 °F 64% 30.26 in 10.0 mi North 6.9 mph - N/A   Scattered Clouds